Location: Conflandey
(47.7287°N, 6.0456°E)
Time: 03:58:40
(UTC+00:00)

YAOGAN 1 - Pass Details

Date: 24 October 2021
Orbit: 618 x 620 km, 97.9° (Epoch: 05 December)

Event Time Altitude Azimuth Distance (km) Brightness Sun altitude
Rises 17:07:47 0° 126° (SE) 2,890 5.6 -6.8°
Reaches altitude 10° 17:10:24 10° 110° (ESE) 1,988 4.6 -7.3°
Maximum altitude 17:13:35 20° 63° (ENE) 1,429 3.9 -7.8°
Drops below altitude 10° 17:16:47 10° 15° (NNE) 1,999 4.9 -8.3°
Sets 17:19:24 0° 359° (N) 2,910 5.9 -8.8°
